Time,TemperatureF,DewpointF,PressureIn,WindDirection,WindDirectionDegrees,WindSpeedMPH,WindSpeedGustMPH,Humidity,HourlyPrecipIn,Conditions,Clouds,dailyrainin,SoftwareType,DateUTC
2013-07-18 00:00:00,76.0,72.5,30.06,ESE,115,6.9,6.9,89,0.00,RA,,0.00,WeatherDisplay:10.37,2013-07-18 04:00:00,
2013-07-18 00:01:00,76.0,72.5,30.06,SE,143,6.9,6.9,89,0.00,RA,,0.00,WeatherDisplay:10.37,2013-07-18 04:01:00,
2013-07-18 00:06:00,75.8,72.7,30.06,SSE,148,5.8,5.8,90,0.00,RA,,0.00,WeatherDisplay:10.37,2013-07-18 04:06:00,
2013-07-18 00:11:00,75.8,72.7,30.06,ESE,107,5.0,5.0,90,0.00,CLR,,0.00,WeatherDisplay:10.37,2013-07-18 04:11:00,
2013-07-18 00:16:00,75.6,72.1,30.06,SE,133,4.6,4.6,89,0.00,CLR,,0.00,WeatherDisplay:10.37,2013-07-18 04:16:00,
2013-07-18 00:21:00,75.5,72.0,30.06,SE,130,3.5,3.5,89,0.00,CLR,,0.00,WeatherDisplay:10.37,2013-07-18 04:21:00,
2013-07-18 00:26:00,75.4,71.9,30.06,SE,128,4.6,4.6,89,0.00,CLR,,0.00,WeatherDisplay:10.37,2013-07-18 04:26:00,
2013-07-18 00:31:00,75.3,71.8,30.06,South,173,4.6,4.6,89,0.00,CLR,,0.00,WeatherDisplay:10.37,2013-07-18 04:31:00,
2013-07-18 00:36:00,75.3,71.8,30.06,SSE,153,5.0,5.0,89,0.00,CLR,,0.00,WeatherDisplay:10.37,2013-07-18 04:36:00,
2013-07-18 00:41:00,75.3,71.8,30.05,SE,136,3.5,3.5,89,0.00,CLR,,0.00,WeatherDisplay:10.37,2013-07-18 04:41:00,
2013-07-18 00:46:00,75.4,71.9,30.05,SE,127,3.5,3.5,89,0.00,CLR,,0.00,WeatherDisplay:10.37,2013-07-18 04:46:00,
2013-07-18 00:51:00,75.3,71.8,30.06,SE,126,2.3,2.3,89,0.00,CLR,,0.00,WeatherDisplay:10.37,2013-07-18 04:51:00,
2013-07-18 00:56:00,75.3,71.8,30.06,SE,126,3.0,3.0,89,0.00,CLR,,0.00,WeatherDisplay:10.37,2013-07-18 04:56:00,
2013-07-18 01:01:00,75.3,71.8,30.05,SE,126,2.3,2.3,89,0.00,CLR,,0.00,WeatherDisplay:10.37,2013-07-18 05:01:00,
2013-07-18 01:06:00,75.3,71.8,30.05,SE,126,2.3,2.3,89,0.00,CLR,,0.00,WeatherDisplay:10.37,2013-07-18 05:06:00,
2013-07-18 01:11:00,75.3,71.8,30.05,SE,125,2.3,2.3,89,0.00,CLR,,0.00,WeatherDisplay:10.37,2013-07-18 05:11:00,
2013-07-18 01:16:00,75.3,71.8,30.05,SE,125,2.3,2.3,89,0.00,CLR,,0.00,WeatherDisplay:10.37,2013-07-18 05:16:00,
2013-07-18 01:21:00,75.3,71.8,30.05,ESE,122,2.3,2.3,89,0.00,CLR,,0.00,WeatherDisplay:10.37,2013-07-18 05:21:00,
2013-07-18 01:26:00,75.4,72.3,30.05,ESE,116,1.2,1.2,90,0.00,CLR,,0.00,WeatherDisplay:10.37,2013-07-18 05:26:00,
2013-07-18 01:31:00,75.5,72.4,30.05,ESE,116,1.2,0.0,90,0.00,CLR,,0.00,WeatherDisplay:10.37,2013-07-18 05:31:00,
2013-07-18 01:36:00,75.5,72.4,30.05,ESE,116,1.2,1.2,90,0.00,CLR,,0.00,WeatherDisplay:10.37,2013-07-18 05:36:00,
2013-07-18 01:41:00,75.5,72.0,30.06,ESE,116,0.0,0.0,89,0.00,CLR,,0.00,WeatherDisplay:10.37,2013-07-18 05:41:00,
2013-07-18 01:46:00,75.6,72.5,30.06,ESE,116,0.0,0.0,90,0.00,CLR,,0.00,WeatherDisplay:10.37,2013-07-18 05:46:00,
2013-07-18 01:51:00,75.6,72.5,30.05,ESE,116,0.0,0.0,90,0.00,CLR,,0.00,WeatherDisplay:10.37,2013-07-18 05:51:00,
2013-07-18 01:56:00,75.6,72.5,30.05,ESE,116,0.0,0.0,90,0.00,CLR,,0.00,WeatherDisplay:10.37,2013-07-18 05:56:00,
2013-07-18 02:01:00,75.6,72.1,30.05,ESE,116,0.0,0.0,89,0.00,CLR,,0.00,WeatherDisplay:10.37,2013-07-18 06:01:00,
2013-07-18 02:06:00,75.6,72.1,30.04,ESE,116,0.0,0.0,89,0.00,CLR,,0.00,WeatherDisplay:10.37,2013-07-18 06:06:00,
2013-07-18 02:11:00,75.6,72.1,30.04,ESE,116,0.0,0.0,89,0.00,CLR,,0.00,WeatherDisplay:10.37,2013-07-18 06:11:00,
2013-07-18 02:16:00,75.5,72.4,30.04,ESE,116,0.0,0.0,90,0.00,CLR,,0.00,WeatherDisplay:10.37,2013-07-18 06:16:00,
2013-07-18 02:21:00,75.3,72.5,30.03,ESE,116,1.2,1.2,91,0.00,CLR,,0.00,WeatherDisplay:10.37,2013-07-18 06:21:00,
2013-07-18 02:26:00,75.1,72.3,30.04,ESE,116,1.2,1.2,91,0.00,CLR,,0.00,WeatherDisplay:10.37,2013-07-18 06:26:00,
2013-07-18 02:31:00,75.1,72.9,30.03,ESE,116,1.2,1.2,93,0.00,CLR,,0.00,WeatherDisplay:10.37,2013-07-18 06:31:00,
2013-07-18 02:36:00,75.1,72.9,30.03,ESE,107,6.0,6.0,93,0.00,CLR,,0.00,WeatherDisplay:10.37,2013-07-18 06:36:00,
2013-07-18 02:41:00,75.1,72.9,30.04,SSE,152,4.6,4.6,93,0.00,CLR,,0.00,WeatherDisplay:10.37,2013-07-18 06:41:00,
2013-07-18 02:46:00,75.2,72.7,30.04,South,183,4.6,4.6,92,0.00,CLR,,0.00,WeatherDisplay:10.37,2013-07-18 06:46:00,
2013-07-18 02:51:00,75.2,72.7,30.04,SSE,168,4.0,4.0,92,0.00,CLR,,0.00,WeatherDisplay:10.37,2013-07-18 06:51:00,
2013-07-18 02:56:00,75.1,72.6,30.04,South,175,4.6,4.6,92,0.00,CLR,,0.00,WeatherDisplay:10.37,2013-07-18 06:56:00,
2013-07-18 03:01:00,75.1,72.6,30.04,SSE,168,4.6,4.6,92,0.00,CLR,,0.00,WeatherDisplay:10.37,2013-07-18 07:01:00,
2013-07-18 03:06:00,74.9,72.4,30.04,SSW,200,11.5,11.5,92,0.00,CLR,,0.00,WeatherDisplay:10.37,2013-07-18 07:06:00,
2013-07-18 03:11:00,74.7,71.9,30.04,South,173,6.9,6.9,91,0.00,CLR,,0.00,WeatherDisplay:10.37,2013-07-18 07:11:00,
2013-07-18 03:16:00,74.6,71.8,30.04,SSE,161,3.5,3.5,91,0.00,CLR,,0.00,WeatherDisplay:10.37,2013-07-18 07:16:00,
2013-07-18 03:21:00,74.4,71.9,30.04,SSE,163,3.5,3.5,92,0.00,CLR,,0.00,WeatherDisplay:10.37,2013-07-18 07:21:00,
2013-07-18 03:26:00,74.2,71.7,30.04,SE,126,3.5,3.5,92,0.00,CLR,,0.00,WeatherDisplay:10.37,2013-07-18 07:26:00,
2013-07-18 03:31:00,74.0,71.5,30.04,SE,129,2.3,2.3,92,0.00,CLR,,0.00,WeatherDisplay:10.37,2013-07-18 07:31:00,
2013-07-18 03:36:00,73.9,71.7,30.04,ESE,123,1.2,1.2,93,0.00,CLR,,0.00,WeatherDisplay:10.37,2013-07-18 07:36:00,
2013-07-18 03:41:00,73.9,71.7,30.04,ESE,123,0.0,0.0,93,0.00,CLR,,0.00,WeatherDisplay:10.37,2013-07-18 07:41:00,
2013-07-18 03:46:00,73.8,71.6,30.04,ESE,123,0.0,0.0,93,0.00,CLR,,0.00,WeatherDisplay:10.37,2013-07-18 07:46:00,
2013-07-18 03:51:00,73.6,71.4,30.04,ESE,123,0.0,0.0,93,0.00,CLR,,0.00,WeatherDisplay:10.37,2013-07-18 07:51:00,
2013-07-18 03:56:00,73.5,71.4,30.04,SSE,158,3.5,3.5,93,0.00,CLR,,0.00,WeatherDisplay:10.37,2013-07-18 07:56:00,
2013-07-18 04:01:00,73.5,71.4,30.03,SE,138,3.5,3.5,93,0.00,CLR,,0.00,WeatherDisplay:10.37,2013-07-18 08:01:00,
2013-07-18 04:06:00,73.4,71.3,30.04,SE,136,2.3,2.3,93,0.00,CLR,,0.00,WeatherDisplay:10.37,2013-07-18 08:06:00,
2013-07-18 04:11:00,73.3,71.2,30.04,ESE,119,2.3,2.3,93,0.00,CLR,,0.00,WeatherDisplay:10.37,2013-07-18 08:11:00,
2013-07-18 04:16:00,73.2,71.1,30.04,SE,124,3.5,3.5,93,0.01,RA,,0.01,WeatherDisplay:10.37,2013-07-18 08:16:00,
2013-07-18 04:21:00,73.1,71.0,30.04,SE,134,3.5,3.5,93,0.01,RA,,0.01,WeatherDisplay:10.37,2013-07-18 08:21:00,
2013-07-18 04:26:00,73.1,71.3,30.04,SE,134,3.5,3.5,94,0.01,,,0.01,WeatherDisplay:10.37,2013-07-18 08:26:00,
2013-07-18 04:31:00,73.0,71.2,30.04,ESE,123,2.3,2.3,94,0.01,CLR,,0.01,WeatherDisplay:10.37,2013-07-18 08:31:00,
2013-07-18 04:36:00,73.1,71.6,30.03,ESE,123,1.2,1.2,95,0.01,CLR,,0.01,WeatherDisplay:10.37,2013-07-18 08:36:00,
2013-07-18 04:41:00,73.1,71.6,30.03,ESE,111,0.0,0.0,95,0.01,CLR,,0.01,WeatherDisplay:10.37,2013-07-18 08:41:00,
2013-07-18 04:46:00,73.1,71.6,30.04,ESE,104,2.3,2.3,95,0.01,CLR,,0.01,WeatherDisplay:10.37,2013-07-18 08:46:00,
2013-07-18 04:51:00,73.1,71.6,30.04,ESE,104,0.0,0.0,95,0.01,CLR,,0.01,WeatherDisplay:10.37,2013-07-18 08:51:00,
2013-07-18 04:56:00,73.1,71.6,30.04,ESE,104,0.0,0.0,95,0.01,CLR,,0.01,WeatherDisplay:10.37,2013-07-18 08:56:00,
2013-07-18 05:01:00,73.1,71.6,30.04,ESE,104,1.2,1.2,95,0.01,CLR,,0.01,WeatherDisplay:10.37,2013-07-18 09:01:00,
2013-07-18 05:06:00,73.3,71.8,30.04,East,86,2.3,2.3,95,0.01,CLR,,0.01,WeatherDisplay:10.37,2013-07-18 09:06:00,
2013-07-18 05:11:00,73.3,71.8,30.04,East,86,1.2,0.0,95,0.01,CLR,,0.01,WeatherDisplay:10.37,2013-07-18 09:11:00,
2013-07-18 05:16:00,73.3,71.8,30.04,East,85,0.0,0.0,95,0.00,CLR,,0.01,WeatherDisplay:10.37,2013-07-18 09:16:00,
2013-07-18 05:21:00,73.4,71.9,30.04,East,85,1.2,1.2,95,0.00,CLR,,0.01,WeatherDisplay:10.37,2013-07-18 09:21:00,
2013-07-18 05:26:00,73.5,72.0,30.04,East,80,3.5,3.5,95,0.00,CLR,,0.01,WeatherDisplay:10.37,2013-07-18 09:26:00,
2013-07-18 05:31:00,73.4,71.9,30.04,ENE,66,2.3,2.3,95,0.00,CLR,,0.01,WeatherDisplay:10.37,2013-07-18 09:31:00,
2013-07-18 05:36:00,73.5,72.0,30.04,ENE,63,3.5,3.5,95,0.00,CLR,,0.01,WeatherDisplay:10.37,2013-07-18 09:36:00,
2013-07-18 05:41:00,73.5,72.0,30.04,ENE,65,3.5,3.5,95,0.01,RA,,0.02,WeatherDisplay:10.37,2013-07-18 09:41:00,
2013-07-18 05:46:00,73.5,72.0,30.04,ENE,69,2.3,2.3,95,0.01,RA,,0.02,WeatherDisplay:10.37,2013-07-18 09:46:00,
2013-07-18 05:51:00,73.5,72.0,30.04,ENE,69,3.5,3.6,95,0.01,CLR,,0.02,WeatherDisplay:10.37,2013-07-18 09:51:00,
2013-07-18 05:56:00,73.5,72.0,30.04,ENE,65,3.5,3.5,95,0.01,CLR,,0.02,WeatherDisplay:10.37,2013-07-18 09:56:00,
2013-07-18 06:01:00,73.6,72.1,30.05,ENE,69,3.5,3.5,95,0.01,CLR,,0.03,WeatherDisplay:10.37,2013-07-18 10:01:00,
2013-07-18 06:06:00,73.6,72.1,30.05,East,97,3.5,3.5,95,0.02,RA,,0.03,WeatherDisplay:10.37,2013-07-18 10:06:00,
2013-07-18 06:11:00,73.6,72.1,30.05,East,95,4.0,4.0,95,0.02,,,0.03,WeatherDisplay:10.37,2013-07-18 10:11:00,
2013-07-18 06:16:00,73.6,72.1,30.05,East,84,2.3,2.3,95,0.02,CLR,,0.03,WeatherDisplay:10.37,2013-07-18 10:16:00,
2013-07-18 06:21:00,73.6,72.4,30.05,East,98,3.5,3.5,96,0.02,CLR,,0.03,WeatherDisplay:10.37,2013-07-18 10:21:00,
2013-07-18 06:26:00,73.7,72.5,30.05,East,84,3.5,3.5,96,0.02,CLR,,0.03,WeatherDisplay:10.37,2013-07-18 10:26:00,
2013-07-18 06:31:00,73.7,72.5,30.05,East,81,3.5,3.6,96,0.02,CLR,,0.03,WeatherDisplay:10.37,2013-07-18 10:31:00,
2013-07-18 06:36:00,73.8,72.6,30.05,East,97,2.3,2.3,96,0.02,CLR,,0.03,WeatherDisplay:10.37,2013-07-18 10:36:00,
2013-07-18 06:41:00,73.8,72.6,30.05,ESE,107,3.5,3.5,96,0.01,CLR,,0.03,WeatherDisplay:10.37,2013-07-18 10:41:00,
2013-07-18 06:46:00,73.8,72.6,30.05,East,97,2.3,2.3,96,0.01,CLR,,0.03,WeatherDisplay:10.37,2013-07-18 10:46:00,
2013-07-18 06:51:00,73.7,72.2,30.05,ESE,111,3.5,3.5,95,0.01,CLR,,0.03,WeatherDisplay:10.37,2013-07-18 10:51:00,
2013-07-18 06:56:00,73.8,72.3,30.05,ESE,116,2.3,2.3,95,0.01,CLR,,0.03,WeatherDisplay:10.37,2013-07-18 10:56:00,
2013-07-18 07:01:00,73.8,72.3,30.05,ESE,118,0.0,0.0,95,0.01,CLR,,0.03,WeatherDisplay:10.37,2013-07-18 11:01:00,
2013-07-18 07:06:00,73.8,72.6,30.05,ESE,120,0.0,0.0,96,0.00,CLR,,0.03,WeatherDisplay:10.37,2013-07-18 11:06:00,
2013-07-18 07:11:00,73.9,72.7,30.06,SE,140,1.2,1.2,96,0.00,CLR,,0.03,WeatherDisplay:10.37,2013-07-18 11:11:00,
2013-07-18 07:16:00,73.9,72.7,30.06,SE,140,1.0,0.0,96,0.00,CLR,,0.03,WeatherDisplay:10.37,2013-07-18 11:16:00,
2013-07-18 07:21:00,74.0,72.8,30.06,SE,132,1.2,1.2,96,0.00,CLR,,0.03,WeatherDisplay:10.37,2013-07-18 11:21:00,
2013-07-18 07:26:00,74.0,72.8,30.06,ESE,108,3.5,3.5,96,0.00,CLR,,0.03,WeatherDisplay:10.37,2013-07-18 11:26:00,
2013-07-18 07:31:00,74.0,72.5,30.06,ESE,123,3.5,3.5,95,0.00,CLR,,0.03,WeatherDisplay:10.37,2013-07-18 11:31:00,
2013-07-18 07:36:00,74.2,73.0,30.06,ESE,123,0.0,0.0,96,0.00,CLR,,0.03,WeatherDisplay:10.37,2013-07-18 11:36:00,
2013-07-18 07:41:00,74.4,73.2,30.06,SE,124,2.3,2.3,96,0.00,CLR,,0.03,WeatherDisplay:10.37,2013-07-18 11:41:00,
2013-07-18 07:46:00,74.7,73.2,30.06,SE,124,1.2,1.2,95,0.00,CLR,,0.03,WeatherDisplay:10.37,2013-07-18 11:46:00,
2013-07-18 07:51:00,75.3,73.8,30.06,SE,124,0.0,0.0,95,0.00,CLR,,0.03,WeatherDisplay:10.37,2013-07-18 11:51:00,
2013-07-18 07:56:00,75.9,74.0,30.06,SE,124,1.2,1.2,94,0.00,CLR,,0.03,WeatherDisplay:10.37,2013-07-18 11:56:00,
2013-07-18 08:01:00,76.5,74.3,30.06,SE,124,1.0,1.0,93,0.00,CLR,,0.03,WeatherDisplay:10.37,2013-07-18 12:01:00,
2013-07-18 08:06:00,77.0,73.8,30.07,SE,129,3.5,3.5,90,0.00,CLR,,0.03,WeatherDisplay:10.37,2013-07-18 12:06:00,
2013-07-18 08:11:00,77.1,73.9,30.07,SE,138,1.2,1.2,90,0.00,CLR,,0.03,WeatherDisplay:10.37,2013-07-18 12:11:00,
2013-07-18 08:16:00,76.9,73.4,30.07,SE,146,3.5,3.5,89,0.00,CLR,,0.03,WeatherDisplay:10.37,2013-07-18 12:16:00,
2013-07-18 08:21:00,76.7,73.2,30.07,SSE,147,4.6,4.6,89,0.00,CLR,,0.03,WeatherDisplay:10.37,2013-07-18 12:21:00,
2013-07-18 08:26:00,76.8,73.3,30.08,ESE,123,4.6,4.6,89,0.00,CLR,,0.03,WeatherDisplay:10.37,2013-07-18 12:26:00,
2013-07-18 08:31:00,77.0,73.2,30.08,SE,128,4.6,4.6,88,0.00,CLR,,0.03,WeatherDisplay:10.37,2013-07-18 12:31:00,
2013-07-18 08:36:00,77.5,73.3,30.08,SE,146,5.0,5.0,87,0.00,CLR,,0.03,WeatherDisplay:10.37,2013-07-18 12:36:00,
2013-07-18 08:41:00,77.7,73.5,30.08,SE,131,6.9,6.9,87,0.00,CLR,,0.03,WeatherDisplay:10.37,2013-07-18 12:41:00,
2013-07-18 08:46:00,77.9,73.7,30.08,SE,141,6.0,6.0,87,0.01,RA,,0.04,WeatherDisplay:10.37,2013-07-18 12:46:00,
2013-07-18 08:51:00,78.2,73.7,30.08,SE,132,5.8,5.8,86,0.01,RA,,0.04,WeatherDisplay:10.37,2013-07-18 12:51:00,
2013-07-18 08:56:00,78.3,73.4,30.08,SE,127,4.6,4.6,85,0.01,CLR,,0.04,WeatherDisplay:10.37,2013-07-18 12:56:00,
2013-07-18 09:01:00,78.3,73.4,30.08,SE,127,3.5,3.5,85,0.01,CLR,,0.04,WeatherDisplay:10.37,2013-07-18 13:01:00,
2013-07-18 09:06:00,78.4,73.5,30.08,SE,141,7.0,7.0,85,0.01,CLR,,0.04,WeatherDisplay:10.37,2013-07-18 13:06:00,
2013-07-18 09:11:00,78.4,73.2,30.08,ESE,122,6.9,6.9,84,0.01,CLR,,0.04,WeatherDisplay:10.37,2013-07-18 13:11:00,
2013-07-18 09:16:00,78.5,73.3,30.08,SE,130,3.5,3.5,84,0.01,CLR,,0.04,WeatherDisplay:10.37,2013-07-18 13:16:00,
2013-07-18 09:21:00,78.7,73.5,30.08,SE,140,5.0,5.0,84,0.01,CLR,,0.04,WeatherDisplay:10.37,2013-07-18 13:21:00,
2013-07-18 09:26:00,78.9,74.0,30.08,SE,136,3.5,3.5,85,0.01,CLR,,0.04,WeatherDisplay:10.37,2013-07-18 13:26:00,
2013-07-18 09:31:00,79.7,74.8,30.09,East,96,3.5,3.5,85,0.01,CLR,,0.04,WeatherDisplay:10.37,2013-07-18 13:31:00,
2013-07-18 09:36:00,80.3,74.7,30.09,SE,129,3.5,3.5,83,0.01,CLR,,0.04,WeatherDisplay:10.37,2013-07-18 13:36:00,
2013-07-18 09:41:00,80.5,74.1,30.09,ESE,118,5.8,5.8,81,0.01,CLR,,0.04,WeatherDisplay:10.37,2013-07-18 13:41:00,
2013-07-18 09:46:00,80.6,74.2,30.09,SSE,155,3.5,3.5,81,0.00,CLR,,0.04,WeatherDisplay:10.37,2013-07-18 13:46:00,
2013-07-18 09:51:00,81.4,74.6,30.09,ESE,123,4.6,4.6,80,0.00,CLR,,0.04,WeatherDisplay:10.37,2013-07-18 13:51:00,
2013-07-18 09:56:00,82.1,74.9,30.09,ESE,103,5.0,5.0,79,0.00,CLR,,0.04,WeatherDisplay:10.37,2013-07-18 13:56:00,
2013-07-18 10:01:00,82.2,73.9,30.10,ESE,111,9.2,9.2,76,0.00,CLR,,0.04,WeatherDisplay:10.37,2013-07-18 14:01:00,
2013-07-18 10:06:00,81.7,73.8,30.10,SE,130,4.6,4.6,77,0.00,CLR,,0.04,WeatherDisplay:10.37,2013-07-18 14:06:00,
2013-07-18 10:11:00,81.3,73.8,30.10,ESE,113,8.1,8.1,78,0.00,CLR,,0.04,WeatherDisplay:10.37,2013-07-18 14:11:00,
2013-07-18 10:16:00,81.0,73.5,30.09,SE,127,5.0,5.0,78,0.00,CLR,,0.04,WeatherDisplay:10.37,2013-07-18 14:16:00,
2013-07-18 10:21:00,81.2,74.4,30.09,East,85,6.9,6.9,80,0.00,CLR,,0.04,WeatherDisplay:10.37,2013-07-18 14:21:00,
2013-07-18 10:26:00,81.4,74.6,30.09,East,96,6.9,6.9,80,0.00,CLR,,0.04,WeatherDisplay:10.37,2013-07-18 14:26:00,
2013-07-18 10:31:00,81.7,74.2,30.09,South,180,6.9,6.9,78,0.00,CLR,,0.04,WeatherDisplay:10.37,2013-07-18 14:31:00,
2013-07-18 10:36:00,82.4,74.8,30.09,SSE,157,5.8,5.8,78,0.00,CLR,,0.04,WeatherDisplay:10.37,2013-07-18 14:36:00,
2013-07-18 10:41:00,82.8,74.5,30.09,ESE,121,10.4,10.4,76,0.00,CLR,,0.04,WeatherDisplay:10.37,2013-07-18 14:41:00,
2013-07-18 10:46:00,82.8,74.8,30.09,ESE,122,6.9,6.9,77,0.00,CLR,,0.04,WeatherDisplay:10.37,2013-07-18 14:46:00,
2013-07-18 10:51:00,83.2,74.8,30.09,ENE,69,5.8,5.8,76,0.00,CLR,,0.04,WeatherDisplay:10.37,2013-07-18 14:51:00,
2013-07-18 10:56:00,83.1,74.7,30.09,South,182,9.2,9.2,76,0.00,CLR,,0.04,WeatherDisplay:10.37,2013-07-18 14:56:00,
2013-07-18 11:01:00,82.9,74.9,30.09,ESE,107,6.0,6.0,77,0.00,CLR,,0.04,WeatherDisplay:10.37,2013-07-18 15:01:00,
2013-07-18 11:06:00,82.8,75.2,30.09,ESE,120,6.9,6.9,78,0.00,CLR,,0.04,WeatherDisplay:10.37,2013-07-18 15:06:00,
2013-07-18 11:11:00,82.8,75.2,30.08,SE,133,5.8,5.8,78,0.00,CLR,,0.04,WeatherDisplay:10.37,2013-07-18 15:11:00,
2013-07-18 11:16:00,82.8,75.2,30.08,East,82,8.1,8.1,78,0.00,CLR,,0.04,WeatherDisplay:10.37,2013-07-18 15:16:00,
2013-07-18 11:21:00,82.5,74.9,30.08,ENE,75,6.9,6.9,78,0.00,CLR,,0.04,WeatherDisplay:10.37,2013-07-18 15:21:00,
2013-07-18 11:26:00,81.9,75.1,30.08,ESE,109,10.4,10.4,80,0.00,CLR,,0.04,WeatherDisplay:10.37,2013-07-18 15:26:00,
2013-07-18 11:31:00,81.4,75.0,30.09,SE,126,11.5,11.5,81,0.00,CLR,,0.04,WeatherDisplay:10.37,2013-07-18 15:31:00,
2013-07-18 11:36:00,81.0,74.6,30.09,SSE,161,15.0,15.0,81,0.00,CLR,,0.04,WeatherDisplay:10.37,2013-07-18 15:36:00,
2013-07-18 11:41:00,79.5,73.5,30.09,SSE,168,13.8,13.8,82,0.00,CLR,,0.04,WeatherDisplay:10.37,2013-07-18 15:41:00,
2013-07-18 11:46:00,78.0,73.1,30.09,SSE,163,15.0,15.0,85,0.00,CLR,,0.04,WeatherDisplay:10.37,2013-07-18 15:46:00,
2013-07-18 11:51:00,77.1,73.3,30.10,SE,139,12.7,12.7,88,0.01,RA,,0.05,WeatherDisplay:10.37,2013-07-18 15:51:00,
2013-07-18 11:56:00,76.5,73.7,30.10,SE,140,6.9,6.9,91,0.04,RA,,0.08,WeatherDisplay:10.37,2013-07-18 15:56:00,
2013-07-18 12:01:00,76.2,74.0,30.10,SSE,150,9.2,9.2,93,0.04,RA,,0.08,WeatherDisplay:10.37,2013-07-18 16:01:00,
2013-07-18 12:06:00,76.2,74.0,30.09,SE,126,4.6,4.6,93,0.04,,,0.08,WeatherDisplay:10.37,2013-07-18 16:06:00,
2013-07-18 12:11:00,76.4,74.5,30.09,SSE,153,5.8,5.8,94,0.04,CLR,,0.08,WeatherDisplay:10.37,2013-07-18 16:11:00,
2013-07-18 12:16:00,76.9,75.0,30.09,SE,130,3.5,3.5,94,0.04,CLR,,0.08,WeatherDisplay:10.37,2013-07-18 16:16:00,
2013-07-18 12:21:00,77.7,75.5,30.09,ESE,113,9.2,9.2,93,0.04,CLR,,0.08,WeatherDisplay:10.37,2013-07-18 16:21:00,
2013-07-18 12:26:00,78.8,76.3,30.09,SSE,151,9.2,9.2,92,0.04,CLR,,0.08,WeatherDisplay:10.37,2013-07-18 16:26:00,
2013-07-18 12:31:00,79.7,75.5,30.09,East,91,11.5,11.5,87,0.04,CLR,,0.08,WeatherDisplay:10.37,2013-07-18 16:31:00,
2013-07-18 12:36:00,80.5,76.3,30.08,SE,129,10.4,10.4,87,0.04,CLR,,0.08,WeatherDisplay:10.37,2013-07-18 16:36:00,
2013-07-18 12:41:00,81.1,75.4,30.08,ESE,122,11.5,11.5,83,0.04,CLR,,0.08,WeatherDisplay:10.37,2013-07-18 16:41:00,
2013-07-18 12:46:00,81.2,75.2,30.09,ESE,103,9.2,9.2,82,0.04,CLR,,0.08,WeatherDisplay:10.37,2013-07-18 16:46:00,
2013-07-18 12:51:00,81.3,74.9,30.09,SE,141,9.2,9.2,81,0.03,CLR,,0.08,WeatherDisplay:10.37,2013-07-18 16:51:00,
2013-07-18 12:56:00,81.9,75.9,30.09,SE,144,6.0,6.0,82,0.00,CLR,,0.08,WeatherDisplay:10.37,2013-07-18 16:56:00,
2013-07-18 13:01:00,82.7,74.8,30.08,SE,140,9.2,9.2,77,0.00,CLR,,0.08,WeatherDisplay:10.37,2013-07-18 17:01:00,
2013-07-18 13:06:00,83.3,75.7,30.08,SSE,160,10.4,10.4,78,0.00,CLR,,0.08,WeatherDisplay:10.37,2013-07-18 17:06:00,
2013-07-18 13:11:00,84.0,74.0,30.08,SSE,156,8.1,8.1,72,0.00,CLR,,0.08,WeatherDisplay:10.37,2013-07-18 17:11:00,
2013-07-18 13:16:00,84.1,74.5,30.08,ESE,107,9.2,9.2,73,0.00,CLR,,0.08,WeatherDisplay:10.37,2013-07-18 17:16:00,
2013-07-18 13:21:00,84.0,74.8,30.08,East,94,10.4,10.4,74,0.00,CLR,,0.08,WeatherDisplay:10.37,2013-07-18 17:21:00,
2013-07-18 13:26:00,83.8,75.4,30.08,South,173,10.4,10.4,76,0.00,CLR,,0.08,WeatherDisplay:10.37,2013-07-18 17:26:00,
2013-07-18 13:31:00,84.1,74.5,30.08,SSE,156,10.4,10.4,73,0.00,CLR,,0.08,WeatherDisplay:10.37,2013-07-18 17:31:00,
2013-07-18 13:36:00,84.2,75.4,30.08,ESE,111,8.1,8.1,75,0.00,CLR,,0.08,WeatherDisplay:10.37,2013-07-18 17:36:00,
2013-07-18 13:41:00,83.8,75.4,30.08,ESE,114,9.2,9.2,76,0.00,CLR,,0.08,WeatherDisplay:10.37,2013-07-18 17:41:00,
2013-07-18 13:46:00,83.4,75.4,30.07,SSE,168,9.2,9.2,77,0.00,CLR,,0.08,WeatherDisplay:10.37,2013-07-18 17:46:00,
2013-07-18 13:51:00,83.1,75.1,30.07,SE,134,11.5,11.5,77,0.00,CLR,,0.08,WeatherDisplay:10.37,2013-07-18 17:51:00,
2013-07-18 13:56:00,83.5,75.5,30.07,South,170,11.5,11.5,77,0.00,CLR,,0.08,WeatherDisplay:10.37,2013-07-18 17:56:00,
2013-07-18 14:01:00,83.9,75.1,30.07,South,188,13.8,13.8,75,0.00,CLR,,0.08,WeatherDisplay:10.37,2013-07-18 18:01:00,
2013-07-18 14:06:00,83.8,75.8,30.07,SSE,147,13.8,13.8,77,0.00,CLR,,0.08,WeatherDisplay:10.37,2013-07-18 18:06:00,
2013-07-18 14:11:00,83.9,75.5,30.07,East,101,11.5,11.5,76,0.00,CLR,,0.08,WeatherDisplay:10.37,2013-07-18 18:11:00,
2013-07-18 14:16:00,83.5,75.9,30.06,South,175,10.4,10.4,78,0.00,CLR,,0.08,WeatherDisplay:10.37,2013-07-18 18:16:00,
2013-07-18 14:21:00,83.2,75.2,30.06,SSE,163,12.7,12.7,77,0.00,CLR,,0.08,WeatherDisplay:10.37,2013-07-18 18:21:00,
2013-07-18 14:26:00,83.7,74.9,30.06,SE,130,12.7,12.7,75,0.00,CLR,,0.08,WeatherDisplay:10.37,2013-07-18 18:26:00,
2013-07-18 14:31:00,83.8,75.0,30.06,SSE,156,12.7,12.7,75,0.00,CLR,,0.08,WeatherDisplay:10.37,2013-07-18 18:31:00,
2013-07-18 14:36:00,83.9,74.3,30.06,SE,142,13.8,13.8,73,0.00,CLR,,0.08,WeatherDisplay:10.37,2013-07-18 18:36:00,
2013-07-18 14:41:00,84.1,74.5,30.06,SE,142,10.4,10.4,73,0.00,CLR,,0.08,WeatherDisplay:10.37,2013-07-18 18:41:00,
2013-07-18 14:46:00,84.1,74.9,30.05,SE,125,6.9,6.9,74,0.00,CLR,,0.08,WeatherDisplay:10.37,2013-07-18 18:46:00,
2013-07-18 14:51:00,84.5,74.9,30.05,SSE,159,10.4,10.4,73,0.00,CLR,,0.08,WeatherDisplay:10.37,2013-07-18 18:51:00,
2013-07-18 14:56:00,84.7,73.8,30.05,SSW,206,11.5,11.5,70,0.00,CLR,,0.08,WeatherDisplay:10.37,2013-07-18 18:56:00,
2013-07-18 15:01:00,85.0,73.7,30.05,SE,136,13.0,13.0,69,0.00,CLR,,0.08,WeatherDisplay:10.37,2013-07-18 19:01:00,
2013-07-18 15:06:00,84.6,73.7,30.05,South,169,10.4,10.4,70,0.00,CLR,,0.08,WeatherDisplay:10.37,2013-07-18 19:06:00,
2013-07-18 15:11:00,84.7,73.8,30.06,SSE,159,12.0,12.0,70,0.00,CLR,,0.08,WeatherDisplay:10.37,2013-07-18 19:11:00,
2013-07-18 15:16:00,84.5,74.1,30.05,SSW,194,5.0,5.0,71,0.00,CLR,,0.08,WeatherDisplay:10.37,2013-07-18 19:16:00,
2013-07-18 15:21:00,84.7,73.8,30.05,South,171,10.4,10.4,70,0.00,CLR,,0.08,WeatherDisplay:10.37,2013-07-18 19:21:00,
2013-07-18 15:26:00,84.6,73.7,30.05,South,169,11.5,11.5,70,0.00,CLR,,0.08,WeatherDisplay:10.37,2013-07-18 19:26:00,
2013-07-18 15:31:00,84.5,74.5,30.05,SE,129,10.4,10.4,72,0.00,CLR,,0.08,WeatherDisplay:10.37,2013-07-18 19:31:00,
2013-07-18 15:36:00,83.9,73.5,30.05,South,173,11.5,11.5,71,0.00,CLR,,0.08,WeatherDisplay:10.37,2013-07-18 19:36:00,
2013-07-18 15:41:00,83.5,73.9,30.04,SE,129,9.2,9.2,73,0.00,CLR,,0.08,WeatherDisplay:10.37,2013-07-18 19:41:00,
2013-07-18 15:46:00,83.3,74.1,30.04,SE,146,13.0,13.0,74,0.00,CLR,,0.08,WeatherDisplay:10.37,2013-07-18 19:46:00,
2013-07-18 15:51:00,83.0,74.3,30.04,East,101,11.5,11.5,75,0.00,CLR,,0.08,WeatherDisplay:10.37,2013-07-18 19:51:00,
2013-07-18 15:56:00,83.1,74.4,30.04,SE,140,13.0,13.0,75,0.00,CLR,,0.08,WeatherDisplay:10.37,2013-07-18 19:56:00,
2013-07-18 16:01:00,83.0,75.0,30.04,ESE,119,9.2,9.2,77,0.00,CLR,,0.08,WeatherDisplay:10.37,2013-07-18 20:01:00,
2013-07-18 16:06:00,82.9,74.6,30.04,SE,135,10.4,10.4,76,0.00,CLR,,0.08,WeatherDisplay:10.37,2013-07-18 20:06:00,
2013-07-18 16:11:00,82.9,74.9,30.04,ESE,119,6.9,6.9,77,0.00,CLR,,0.08,WeatherDisplay:10.37,2013-07-18 20:11:00,
2013-07-18 16:16:00,82.9,74.9,30.05,SSE,152,12.7,12.7,77,0.00,CLR,,0.08,WeatherDisplay:10.37,2013-07-18 20:16:00,
2013-07-18 16:21:00,82.5,74.9,30.05,SE,140,9.2,9.2,78,0.00,CLR,,0.08,WeatherDisplay:10.37,2013-07-18 20:21:00,
2013-07-18 16:26:00,82.4,75.2,30.04,SSE,153,9.2,9.2,79,0.00,CLR,,0.08,WeatherDisplay:10.37,2013-07-18 20:26:00,
2013-07-18 16:31:00,82.1,74.9,30.04,SE,126,12.7,12.7,79,0.00,CLR,,0.08,WeatherDisplay:10.37,2013-07-18 20:31:00,
2013-07-18 16:36:00,82.1,75.3,30.04,SE,131,11.5,11.5,80,0.00,CLR,,0.08,WeatherDisplay:10.37,2013-07-18 20:36:00,
2013-07-18 16:41:00,82.0,75.6,30.04,SE,132,6.9,6.9,81,0.00,CLR,,0.08,WeatherDisplay:10.37,2013-07-18 20:41:00,
2013-07-18 16:46:00,82.1,75.7,30.04,SE,130,10.4,10.4,81,0.00,CLR,,0.08,WeatherDisplay:10.37,2013-07-18 20:46:00,
2013-07-18 16:51:00,82.0,75.6,30.04,SSE,159,10.4,10.4,81,0.00,CLR,,0.08,WeatherDisplay:10.37,2013-07-18 20:51:00,
2013-07-18 16:56:00,82.4,75.2,30.04,SSW,211,9.2,9.2,79,0.00,CLR,,0.08,WeatherDisplay:10.37,2013-07-18 20:56:00,
2013-07-18 17:01:00,82.5,75.3,30.04,SSE,163,9.2,9.2,79,0.00,CLR,,0.08,WeatherDisplay:10.37,2013-07-18 21:01:00,
2013-07-18 17:06:00,82.6,75.0,30.04,South,170,11.5,11.5,78,0.00,CLR,,0.08,WeatherDisplay:10.37,2013-07-18 21:06:00,
2013-07-18 17:11:00,82.3,74.7,30.04,ESE,117,9.2,9.2,78,0.00,CLR,,0.08,WeatherDisplay:10.37,2013-07-18 21:11:00,
2013-07-18 17:16:00,82.0,74.8,30.04,SSE,160,11.5,11.5,79,0.00,CLR,,0.08,WeatherDisplay:10.37,2013-07-18 21:16:00,
2013-07-18 17:21:00,81.8,75.4,30.03,SE,124,6.9,6.9,81,0.00,CLR,,0.08,WeatherDisplay:10.37,2013-07-18 21:21:00,
2013-07-18 17:26:00,81.4,75.7,30.03,SSE,163,6.9,6.9,83,0.00,CLR,,0.08,WeatherDisplay:10.37,2013-07-18 21:26:00,
2013-07-18 17:31:00,80.7,75.1,30.03,SSE,148,11.5,11.5,83,0.00,CLR,,0.08,WeatherDisplay:10.37,2013-07-18 21:31:00,
2013-07-18 17:36:00,80.5,75.6,30.05,SSW,200,6.9,6.9,85,0.00,CLR,,0.08,WeatherDisplay:10.37,2013-07-18 21:36:00,
2013-07-18 17:41:00,77.1,71.2,30.05,West,271,21.9,21.9,82,0.07,RA,,0.15,WeatherDisplay:10.37,2013-07-18 21:41:00,
2013-07-18 17:46:00,73.8,70.4,30.06,WSW,255,11.5,11.5,89,0.19,RA,,0.27,WeatherDisplay:10.37,2013-07-18 21:46:00,
2013-07-18 17:51:00,72.6,70.1,30.06,SSW,209,4.0,4.0,92,0.25,RA,,0.33,WeatherDisplay:10.37,2013-07-18 21:51:00,
2013-07-18 17:56:00,72.1,70.0,30.07,SW,219,4.6,4.6,93,0.48,RA,,0.56,WeatherDisplay:10.37,2013-07-18 21:56:00,
2013-07-18 18:01:00,71.7,69.9,30.06,WSW,249,3.5,3.5,94,0.63,RA,,0.72,WeatherDisplay:10.37,2013-07-18 22:01:00,
2013-07-18 18:06:00,71.6,70.1,30.06,West,280,9.2,9.2,95,0.70,RA,,0.78,WeatherDisplay:10.37,2013-07-18 22:06:00,
2013-07-18 18:11:00,71.4,69.9,30.06,West,269,3.5,3.5,95,0.75,RA,,0.83,WeatherDisplay:10.37,2013-07-18 22:11:00,
2013-07-18 18:16:00,71.5,70.3,30.05,West,264,4.6,4.6,96,0.76,RA,,0.84,WeatherDisplay:10.37,2013-07-18 22:16:00,
2013-07-18 18:21:00,71.6,70.4,30.06,SW,231,3.5,3.5,96,0.76,RA,,0.84,WeatherDisplay:10.37,2013-07-18 22:21:00,
2013-07-18 18:26:00,71.6,70.4,30.06,SSW,213,3.5,3.5,96,0.78,RA,,0.86,WeatherDisplay:10.37,2013-07-18 22:26:00,
2013-07-18 18:31:00,71.5,70.0,30.06,SSW,194,3.5,3.5,95,0.81,RA,,0.89,WeatherDisplay:10.37,2013-07-18 22:31:00,
2013-07-18 18:36:00,71.4,70.2,30.05,WSW,248,3.5,3.5,96,0.83,RA,,0.91,WeatherDisplay:10.37,2013-07-18 22:36:00,
2013-07-18 18:41:00,71.3,69.8,30.06,WSW,248,0.0,0.0,95,0.76,RA,,0.91,WeatherDisplay:10.37,2013-07-18 22:41:00,
2013-07-18 18:46:00,71.6,70.4,30.06,ENE,71,4.6,4.6,96,0.65,RA,,0.92,WeatherDisplay:10.37,2013-07-18 22:46:00,
2013-07-18 18:51:00,71.7,70.5,30.06,East,82,4.6,4.6,96,0.59,RA,,0.92,WeatherDisplay:10.37,2013-07-18 22:51:00,
2013-07-18 18:56:00,71.7,70.5,30.06,ENE,63,2.3,2.3,96,0.36,,,0.92,WeatherDisplay:10.37,2013-07-18 22:56:00,
2013-07-18 19:01:00,71.8,70.6,30.07,ENE,71,5.0,5.0,96,0.21,RA,,0.93,WeatherDisplay:10.37,2013-07-18 23:01:00,
2013-07-18 19:06:00,71.9,70.7,30.07,ENE,58,3.5,3.5,96,0.15,RA,,0.93,WeatherDisplay:10.37,2013-07-18 23:06:00,
2013-07-18 19:11:00,71.9,70.7,30.07,ENE,75,2.3,2.3,96,0.10,,,0.93,WeatherDisplay:10.37,2013-07-18 23:11:00,
2013-07-18 19:16:00,72.0,70.8,30.08,East,81,3.5,3.5,96,0.09,CLR,,0.93,WeatherDisplay:10.37,2013-07-18 23:16:00,
2013-07-18 19:21:00,71.9,70.7,30.08,ESE,107,3.5,3.5,96,0.09,CLR,,0.93,WeatherDisplay:10.37,2013-07-18 23:21:00,
2013-07-18 19:26:00,71.7,70.2,30.08,ESE,119,3.5,3.5,95,0.07,CLR,,0.93,WeatherDisplay:10.37,2013-07-18 23:26:00,
2013-07-18 19:31:00,71.7,70.2,30.08,ESE,119,1.2,1.2,95,0.04,CLR,,0.93,WeatherDisplay:10.37,2013-07-18 23:31:00,
2013-07-18 19:36:00,71.8,70.3,30.08,SE,138,3.5,3.5,95,0.02,CLR,,0.93,WeatherDisplay:10.37,2013-07-18 23:36:00,
2013-07-18 19:41:00,71.9,70.4,30.08,SE,135,2.3,2.3,95,0.02,CLR,,0.93,WeatherDisplay:10.37,2013-07-18 23:41:00,
2013-07-18 19:46:00,72.0,70.5,30.08,SE,134,3.5,3.5,95,0.01,CLR,,0.93,WeatherDisplay:10.37,2013-07-18 23:46:00,
2013-07-18 19:51:00,72.1,70.6,30.08,SE,136,1.2,1.2,95,0.01,CLR,,0.93,WeatherDisplay:10.37,2013-07-18 23:51:00,
2013-07-18 19:56:00,72.2,71.0,30.07,SE,142,2.3,2.3,96,0.01,CLR,,0.93,WeatherDisplay:10.37,2013-07-18 23:56:00,
2013-07-18 20:01:00,72.1,70.6,30.08,SE,144,3.5,3.5,95,0.00,CLR,,0.93,WeatherDisplay:10.37,2013-07-19 00:01:00,
2013-07-18 20:06:00,72.1,70.6,30.08,SE,144,1.2,1.2,95,0.00,CLR,,0.93,WeatherDisplay:10.37,2013-07-19 00:06:00,
2013-07-18 20:11:00,72.1,70.6,30.08,SE,144,2.3,2.3,95,0.00,CLR,,0.93,WeatherDisplay:10.37,2013-07-19 00:11:00,
2013-07-18 20:16:00,72.1,70.9,30.08,SSE,161,2.3,2.3,96,0.00,CLR,,0.93,WeatherDisplay:10.37,2013-07-19 00:16:00,
2013-07-18 20:21:00,72.2,71.0,30.08,South,173,3.5,3.5,96,0.00,CLR,,0.93,WeatherDisplay:10.37,2013-07-19 00:21:00,
2013-07-18 20:26:00,72.3,71.1,30.08,SSE,163,3.5,3.5,96,0.00,CLR,,0.93,WeatherDisplay:10.37,2013-07-19 00:26:00,
2013-07-18 20:31:00,72.4,71.2,30.08,SSE,159,2.3,2.3,96,0.00,CLR,,0.93,WeatherDisplay:10.37,2013-07-19 00:31:00,
2013-07-18 20:36:00,72.4,71.2,30.08,SSE,159,2.3,2.3,96,0.00,CLR,,0.93,WeatherDisplay:10.37,2013-07-19 00:36:00,
2013-07-18 20:41:00,72.4,71.2,30.08,SSE,166,1.2,1.2,96,0.01,RA,,0.94,WeatherDisplay:10.37,2013-07-19 00:41:00,
2013-07-18 20:46:00,72.4,71.2,30.08,SSE,151,2.3,2.3,96,0.01,RA,,0.94,WeatherDisplay:10.37,2013-07-19 00:46:00,
2013-07-18 20:51:00,72.4,71.2,30.08,SSE,162,3.5,3.5,96,0.01,CLR,,0.94,WeatherDisplay:10.37,2013-07-19 00:51:00,
2013-07-18 20:56:00,72.4,71.2,30.07,South,179,3.5,3.5,96,0.01,CLR,,0.94,WeatherDisplay:10.37,2013-07-19 00:56:00,
2013-07-18 21:01:00,72.3,71.1,30.07,SSE,163,2.3,2.3,96,0.01,CLR,,0.94,WeatherDisplay:10.37,2013-07-19 01:01:00,
2013-07-18 21:06:00,72.2,71.0,30.07,SSE,166,5.8,5.8,96,0.01,CLR,,0.94,WeatherDisplay:10.37,2013-07-19 01:06:00,
2013-07-18 21:11:00,72.0,70.5,30.06,SSE,159,3.5,3.5,95,0.01,CLR,,0.94,WeatherDisplay:10.37,2013-07-19 01:11:00,